• In Moldova, Republic
  • List of Countries
  • For 7 days
  • Water Temperature
  • Satellite Maps
  • Weather Map
  • Weather Widgets
  • user-avatar
    Login

    Hourly Weather Canberra

    Today, 17 July, Tuesday

    Time Temperature Precipitation Wind Pressure Humidity
    00:00 +2°C° 0 mm 2 mps 706 mmHg 75%
    01:00 +2°C° 0 mm 2 mps 706 mmHg 75%
    02:00 +2°C° 0 mm 2 mps 706 mmHg 75%
    03:00 +2°C° 0 mm 2 mps 706 mmHg 76%
    04:00 +2°C° 0 mm 2 mps 706 mmHg 76%
    05:00 +1°C° 0 mm 2 mps 706 mmHg 76%
    06:00 +1°C° 0 mm 2 mps 706 mmHg 77%
    07:00 +1°C° 0 mm 2 mps 706 mmHg 77%
    08:00 +3°C° 0 mm 3 mps 706 mmHg 66%
    09:00 +5°C° 0 mm 4 mps 707 mmHg 56%
    10:00 +8°C° 0 mm 4 mps 707 mmHg 44%
    11:00 +10°C° 0 mm 5 mps 706 mmHg 40%
    12:00 +11°C° 0 mm 6 mps 706 mmHg 36%
    13:00 +12°C° 0 mm 7 mps 705 mmHg 32%
    14:00 +12°C° 0 mm 7 mps 705 mmHg 36%
    15:00 +12°C° 0 mm 7 mps 704 mmHg 40%
    16:00 +11°C° 0 mm 6 mps 704 mmHg 43%
    17:00 +10°C° 0 mm 6 mps 704 mmHg 46%
    18:00 +10°C° 0 mm 6 mps 704 mmHg 49%
    19:00 +9°C° 0 mm 6 mps 704 mmHg 51%
    20:00 +9°C° 0 mm 6 mps 704 mmHg 52%
    21:00 +9°C° 0 mm 6 mps 704 mmHg 54%
    22:00 +10°C° 0 mm 7 mps 705 mmHg 55%
    23:00 +8°C° 0 mm 6 mps 705 mmHg 58%

    Tomorrow, 18 July, Wednesday

    Time Temperature Precipitation Wind Pressure Humidity
    00:00 +7°C° 0 mm 6 mps 706 mmHg 62%
    01:00 +5°C° 0 mm 6 mps 706 mmHg 65%
    02:00 +5°C° 0 mm 5 mps 707 mmHg 66%
    03:00 +3°C° 0 mm 5 mps 707 mmHg 68%
    04:00 +3°C° 0 mm 4 mps 707 mmHg 69%
    05:00 +3°C° 0 mm 4 mps 708 mmHg 73%
    06:00 +2°C° 0 mm 3 mps 708 mmHg 77%
    07:00 +2°C° 0 mm 2 mps 709 mmHg 80%
    08:00 +3°C° 0 mm 3 mps 709 mmHg 72%
    09:00 +5°C° 0 mm 3 mps 710 mmHg 64%
    10:00 +8°C° 0 mm 3 mps 710 mmHg 56%
    11:00 +8°C° 0 mm 4 mps 710 mmHg 53%
    12:00 +10°C° 0 mm 4 mps 710 mmHg 50%
    13:00 +11°C° 0 mm 4 mps 709 mmHg 47%
    14:00 +10°C° 0 mm 4 mps 709 mmHg 50%
    15:00 +10°C° 0 mm 4 mps 709 mmHg 54%
    16:00 +8°C° 0 mm 4 mps 709 mmHg 57%
    17:00 +7°C° 0 mm 4 mps 709 mmHg 64%
    18:00 +5°C° 0 mm 3 mps 709 mmHg 72%
    19:00 +4°C° 0 mm 3 mps 709 mmHg 79%
    20:00 +3°C° 0 mm 3 mps 709 mmHg 79%
    21:00 +3°C° 0 mm 3 mps 709 mmHg 78%
    22:00 +3°C° 0 mm 3 mps 710 mmHg 78%
    23:00 +3°C° 0 mm 3 mps 709 mmHg 77%

    Day after tomorrow, 19 July, Thursday

    Time Temperature Precipitation Wind Pressure Humidity
    00:00 +3°C° 0 mm 3 mps 709 mmHg 77%
    01:00 +3°C° 0 mm 3 mps 709 mmHg 76%
    02:00 +3°C° 0 mm 3 mps 708 mmHg 76%
    03:00 +3°C° 0 mm 3 mps 708 mmHg 76%
    04:00 +3°C° 0 mm 3 mps 708 mmHg 76%
    05:00 +2°C° 0 mm 3 mps 708 mmHg 77%
    06:00 +2°C° 0 mm 3 mps 708 mmHg 79%
    07:00 +3°C° 0 mm 2 mps 708 mmHg 80%
    08:00 +4°C° 0 mm 3 mps 708 mmHg 71%
    09:00 +7°C° 0 mm 4 mps 708 mmHg 62%
    10:00 +9°C° 0 mm 5 mps 707 mmHg 54%
    11:00 +10°C° 0 mm 6 mps 707 mmHg 51%
    12:00 +11°C° 0 mm 6 mps 706 mmHg 48%
    13:00 +14°C° 0 mm 6 mps 706 mmHg 46%
    14:00 +13°C° 0 mm 6 mps 705 mmHg 48%
    15:00 +13°C° 0 mm 6 mps 705 mmHg 50%
    16:00 +13°C° 0 mm 5 mps 704 mmHg 53%
    17:00 +10°C° 0 mm 5 mps 704 mmHg 57%
    18:00 +10°C° 0 mm 4 mps 704 mmHg 62%
    19:00 +8°C° 0 mm 3 mps 703 mmHg 67%
    20:00 +8°C° 0 mm 3 mps 703 mmHg 65%
    21:00 +8°C° 0 mm 3 mps 703 mmHg 64%
    22:00 +8°C° 0 mm 3 mps 702 mmHg 63%
    23:00 +7°C° 0 mm 4 mps 701 mmHg 59%

    20 July, Friday

    Time Temperature Precipitation Wind Pressure Humidity
    00:00 +7°C° 0 mm 4 mps 701 mmHg 55%
    01:00 +8°C° 0 mm 4 mps 700 mmHg 52%
    02:00 +7°C° 0.2 mm 4 mps 699 mmHg 56%
    03:00 +7°C° 0.2 mm 4 mps 699 mmHg 60%
    04:00 +6°C° 0.2 mm 4 mps 698 mmHg 64%
    05:00 +6°C° 0.5 mm 4 mps 699 mmHg 69%
    06:00 +5°C° 0.5 mm 5 mps 699 mmHg 74%
    07:00 +4°C° 0.5 mm 6 mps 699 mmHg 80%
    08:00 +3°C° 0.2 mm 6 mps 700 mmHg 79%
    09:00 +3°C° 0.2 mm 7 mps 701 mmHg 78%
    10:00 +3°C° 0.2 mm 7 mps 702 mmHg 78%
    11:00 +4°C° 0 mm 7 mps 702 mmHg 69%
    12:00 +4°C° 0 mm 8 mps 703 mmHg 61%
    13:00 +5°C° 0 mm 8 mps 703 mmHg 52%
    14:00 +5°C° 0 mm 8 mps 703 mmHg 55%
    15:00 +4°C° 0 mm 7 mps 704 mmHg 57%
    16:00 +4°C° 0 mm 7 mps 704 mmHg 60%
    17:00 +3°C° 0 mm 6 mps 705 mmHg 64%
    18:00 +3°C° 0 mm 6 mps 705 mmHg 69%
    19:00 +2°C° 0 mm 5 mps 706 mmHg 74%
    20:00 +2°C° 0 mm 5 mps 707 mmHg 74%
    21:00 +2°C° 0 mm 5 mps 707 mmHg 75%
    22:00 +3°C° 0 mm 4 mps 708 mmHg 75%
    23:00 +3°C° 0 mm 4 mps 708 mmHg 78%

    21 July, Saturday

    Time Temperature Precipitation Wind Pressure Humidity
    00:00 +3°C° 0 mm 4 mps 708 mmHg 80%
    01:00 +1°C° 0 mm 4 mps 708 mmHg 82%
    02:00 +1°C° 0 mm 4 mps 709 mmHg 83%
    03:00 +1°C° 0 mm 4 mps 709 mmHg 83%
    04:00 0°C° 0 mm 4 mps 709 mmHg 84%
    05:00 +1°C° 0 mm 3 mps 710 mmHg 86%
    06:00 0°C° 0 mm 3 mps 710 mmHg 87%
    07:00 +1°C° 0 mm 2 mps 711 mmHg 89%
    08:00 +2°C° 0 mm 3 mps 711 mmHg 82%
    09:00 +3°C° 0 mm 3 mps 711 mmHg 74%
    10:00 +5°C° 0 mm 3 mps 712 mmHg 66%
    11:00 +6°C° 0 mm 4 mps 711 mmHg 63%
    12:00 +7°C° 0 mm 4 mps 711 mmHg 59%
    13:00 +8°C° 0 mm 5 mps 711 mmHg 56%
    14:00 +7°C° 0 mm 4 mps 710 mmHg 58%
    15:00 +6°C° 0 mm 4 mps 710 mmHg 61%
    16:00 +6°C° 0 mm 4 mps 710 mmHg 63%
    17:00 +4°C° 0 mm 3 mps 711 mmHg 70%
    18:00 +3°C° 0 mm 3 mps 711 mmHg 76%
    19:00 +3°C° 0 mm 2 mps 711 mmHg 83%
    20:00 +3°C° 0 mm 2 mps 711 mmHg 85%
    21:00 +2°C° 0 mm 2 mps 711 mmHg 86%
    22:00 +2°C° 0 mm 2 mps 711 mmHg 88%
    23:00 +1°C° 0 mm 2 mps 711 mmHg 89%

    22 July, Sunday

    Time Temperature Precipitation Wind Pressure Humidity
    00:00 +1°C° 0 mm 2 mps 711 mmHg 89%
    01:00 +1°C° 0 mm 2 mps 711 mmHg 90%
    02:00 +1°C° 0 mm 2 mps 711 mmHg 91%
    03:00 +1°C° 0 mm 2 mps 711 mmHg 92%
    04:00 -1°C° 0 mm 2 mps 710 mmHg 92%
    05:00 -1°C° 0 mm 2 mps 711 mmHg 93%
    06:00 -1°C° 0 mm 2 mps 711 mmHg 93%
    07:00 +1°C° 0 mm 1 mps 711 mmHg 94%
    08:00 +2°C° 0 mm 2 mps 711 mmHg 83%
    09:00 +5°C° 0 mm 2 mps 712 mmHg 72%
    10:00 +7°C° 0 mm 2 mps 712 mmHg 61%
    11:00 +9°C° 0 mm 3 mps 711 mmHg 58%
    12:00 +10°C° 0 mm 3 mps 711 mmHg 55%
    13:00 +11°C° 0 mm 4 mps 710 mmHg 52%
    14:00 +10°C° 0 mm 4 mps 710 mmHg 55%
    15:00 +10°C° 0 mm 3 mps 709 mmHg 57%
    16:00 +10°C° 0 mm 3 mps 709 mmHg 59%
    17:00 +7°C° 0 mm 3 mps 709 mmHg 69%
    18:00 +5°C° 0 mm 2 mps 709 mmHg 78%
    19:00 +3°C° 0 mm 2 mps 709 mmHg 87%
    20:00 +3°C° 0 mm 2 mps 709 mmHg 87%
    21:00 +3°C° 0 mm 2 mps 709 mmHg 86%
    22:00 +3°C° 0 mm 2 mps 709 mmHg 86%
    23:00 +3°C° 0 mm 2 mps 709 mmHg 84%
    Show more